#timestamp,LO_Frequency,Hit,StdDev 
1645779615.0,286047002.7,P
1645779615.9,286047002.7,N
1645779635.8,286047000.2,N
1645779655.6,286047002.4,N
1645779675.5,286047002.5,N
1645779695.3,286047002.7,N
1645779715.1,286047002.2,N
1645779735.9,286047002.1,N
1645779755.7,286047001.8,N
1645779775.6,286047004.0,N
1645779795.4,286047001.9,N
1645779815.2,286047001.7,N
1645779835.1,286047003.9,N
1645779836.0,286047003.9,N
1645779855.8,286047004.2,N
1645779875.6,286047003.2,N
1645779895.5,286047001.5,N
1645779915.3,286047001.5,N
1645779935.2,286047002.1,N
1645779955.9,286047002.2,N
1645779975.7,286047001.9,N
1645779995.6,286047002.1,N
1645780015.4,286047002.8,N
1645780035.2,286047001.7,N
1645780055.1,286047002.2,N
1645780056.0,286047002.2,N
1645780075.8,286047002.5,N
1645780095.7,286047002.4,N
1645780115.5,286047001.7,N
1645780135.3,286047001.8,N
1645780155.2,286047002.5,N
1645780175.0,286047002.6,Y
1645780175.9,286047002.6,P
1645780195.8,286047000.8,P
1645780215.6,286047001.0,N
1645780235.4,286046998.5,N
1645780255.3,286047000.9,N
1645780275.1,286047000.1,N
1645780295.8,286047000.9,N
1645780315.7,286047000.0,N
1645780335.5,286046998.3,N
1645780355.4,286046998.2,N
1645780375.2,286047001.2,N
1645780395.0,286046999.1,N
1645780395.9,286046999.1,N
1645780415.8,286047001.2,N
1645780435.6,286047000.5,N
1645780455.4,286047000.5,N
1645780475.3,286047001.2,N
1645780495.1,286047001.1,N
1645780515.9,286046999.3,N
1645780535.7,286046998.6,N
1645780555.5,286047001.1,N
1645780575.4,286046998.2,N
1645780595.2,286046998.5,N
1645780615.1,286046996.6,N
1645780616.0,286046996.6,N
1645780635.8,286046996.5,N
1645780655.6,286046997.7,N
1645780675.5,286046997.2,N
1645780695.3,286046997.2,N
1645780715.1,286046997.1,N
1645780735.9,286046997.7,N
1645780755.7,286046996.5,N
1645780775.6,286046997.7,N
1645780795.4,286046999.5,N
1645780815.2,286046998.9,N
1645780835.1,286046999.5,N
1645780836.0,286046999.5,N
1645780855.8,286046999.4,N
1645780875.6,286046999.0,N
1645780895.5,286046998.9,N
1645780915.3,286047001.0,N
1645780935.2,286047001.0,N
1645780955.9,286047000.5,N
1645780975.7,286047001.2,N
1645780995.6,286046998.2,N
1645781015.4,286047000.6,N
1645781035.2,286047001.0,N
1645781055.1,286047000.4,N
1645781056.0,286047000.4,N
1645781075.8,286047000.7,N
1645781095.7,286047000.9,N
1645781115.5,286047000.8,N
1645781135.3,286047001.2,N
1645781155.2,286047001.2,N
1645781175.0,286046998.3,N
1645781175.9,286046998.3,N
1645781195.8,286046999.4,N
1645781215.6,286046999.0,N
1645781235.4,286046997.0,N
1645781255.3,286046996.5,N
1645781275.1,286046996.6,N
1645781295.8,286046999.1,N
1645781315.7,286046997.5,N
1645781335.5,286046995.3,Y
1645781355.4,286046996.7,P
1645781375.2,286046997.3,N
1645781395.0,286046996.6,N
1645781395.9,286046996.6,N
1645781415.8,286046998.8,N
1645781435.6,286046998.1,N
1645781455.4,286047001.0,N
1645781475.3,286046996.5,N
1645781495.1,286046997.2,N
1645781515.9,286046999.6,N
1645781535.7,286046998.9,N
1645781555.5,286046999.2,N
1645781575.4,286046998.4,N
1645781595.2,286047000.6,N
1645781615.0,286047000.4,N
1645781616.0,286047000.4,N
1645781635.8,286046998.9,N
1645781655.6,286047000.8,N
1645781675.5,286046998.6,N
1645781695.3,286046998.9,N
1645781715.1,286047001.1,N
1645781735.9,286046998.4,N
1645781755.7,286046998.7,N
1645781775.6,286046998.8,N
1645781795.4,286047001.2,N
1645781815.2,286047000.8,N
1645781835.1,286047000.4,N
1645781836.0,286047000.4,N
1645781855.8,286047000.6,N
1645781875.7,286046997.0,N
1645781895.5,286046998.2,N
1645781915.3,286046998.4,N
1645781935.2,286046999.9,N
1645781955.0,286046998.2,N
1645781955.9,286046998.2,N
1645781975.7,286046998.2,N
1645781995.6,286046999.3,N
1645782015.4,286046998.3,N
1645782035.3,286047000.6,N
1645782055.1,286047000.5,N
1645782075.8,286047001.1,N
1645782095.7,286046999.0,N
1645782115.5,286046998.3,N
1645782135.4,286046998.3,N
1645782155.2,286047000.7,N
1645782175.0,286046998.4,N
1645782175.9,286046998.4,N
1645782195.8,286046999.5,N
1645782215.6,286046998.9,N
1645782235.4,286047000.8,N
1645782255.3,286047001.2,N
1645782275.1,286046999.6,N
1645782295.9,286046998.4,N
1645782315.7,286047000.7,N
1645782335.5,286047000.4,N
1645782355.4,286047000.0,N
1645782375.2,286046999.8,N
1645782395.0,286047000.6,N
1645782396.0,286047000.6,N
1645782415.8,286047000.2,N
1645782435.6,286047000.5,N
1645782455.5,286047000.4,N
1645782475.3,286046998.5,N
1645782495.1,286047000.8,N
1645782515.9,286047001.2,N
1645782535.7,286046998.2,N
1645782555.6,286047000.8,N
1645782575.4,286046998.2,N
1645782595.2,286047001.1,N
1645782615.1,286047000.8,N
1645782616.0,286047000.8,N
1645782635.8,286047000.7,N
1645782655.7,286047000.9,N
1645782675.5,286047001.0,N
1645782695.3,286047000.2,N
1645782715.2,286047000.5,N
1645782735.0,286046999.9,N
1645782735.9,286046999.9,N
1645782755.7,286046998.5,N
1645782775.6,286046998.2,N
1645782795.4,286046998.5,N
1645782815.3,286047001.0,N
1645782835.1,286047000.8,N
1645782855.8,286047000.5,N
1645782875.7,286047000.7,N
1645782895.5,286047000.3,N
1645782915.4,286047000.5,N
1645782935.2,286047000.9,N
1645782955.0,286047000.6,N
1645782955.9,286047000.6,N
1645782975.8,286047000.7,N
1645782995.6,286047000.7,N
1645783015.5,286046998.1,N
1645783035.3,286046998.1,N
1645783055.1,286046998.9,N
1645783075.9,286046999.0,N
1645783095.7,286047001.2,N
1645783115.5,286046998.5,N
1645783135.4,286047001.2,N
1645783155.2,286047002.8,N
1645783175.1,286047000.1,N
1645783176.0,286047000.1,N
1645783195.8,286047002.3,N
